{"data":{"norad_id":68565,"epoch":"2026-09-20T04:31:28.869312Z","epoch_age_seconds":71807,"freshness":"FRESH","line1":"1 68565U 26070Z   26263.18852858  .00014491  00000+0  43899-3 0  9993","line2":"2 68565  53.1574 174.8557 0000547 117.2035 242.9024 15.34413697 26395","mean_motion":15.34413697,"eccentricity":5.47e-5,"inclination_deg":53.1574,"raan_deg":174.8557,"arg_perigee_deg":117.2035,"mean_anomaly_deg":242.9024,"bstar":0.00043899,"rev_number":2639,"period_min":93.846920345889,"perigee_km":462.28833840513,"apogee_km":463.03672187373,"semimajor_km":6840.7995301394,"source":"CELESTRAK","updated_at":"2026-09-20T09:00:43.938565Z"}}